Regional Weather Roundup
Issued by NWS

Home | Current Version | Previous Version | Text Only | Print | Product List | Glossary On
Versions: 1 2 3 4 5 6 7 8 9 10 11 12 13 14 15 16 17 18 19 20 21 22 23 24 25 26 27 28 29 30 31 32 33 34 35 36 37 38 39 40 41 42 43 44 45 46 47 48 49 50
000
ASUS46 KSEW 220010
RWRWA

WASHINGTON REGIONAL WEATHER ROUNDUP
NATIONAL WEATHER SERVICE SEATTLE WA
400 PM PST FRI NOV 21 2014

NOTE:"FAIR" INDICATES FEW OR NO CLOUDS BELOW 12,000 FEET WITH NO
SIGNIFICANT WEATHER AND/OR OBSTRUCTIONS TO VISIBILITY.

WAZ505-507>509-220100-
SEATTLE, TACOMA, EVERETT, AND VICINITY

CITY           SKY/WX    TMP DP  RH WIND       PRES   REMARKS
EVERETT        LGT RAIN  47  43  86 SE18G26   29.36F
6HR MIN TEMP:  47; 6HR MAX TEMP:  49; 6HR PCP:  0.15;

BOEING FIELD   LGT RAIN  50  45  83 S6        29.37F
6HR MIN TEMP:  50; 6HR MAX TEMP:  53; 6HR PCP:  0.41;

RENTON         LGT RAIN  48  46  93 MISG      29.37F FOG
6HR MIN TEMP:  48; 6HR MAX TEMP:  52; 6HR PCP:  0.30;

SEATAC AIRPORT LGT RAIN  47  45  93 E9        29.37F FOG
6HR MIN TEMP:  47; 6HR MAX TEMP:  52; 6HR PCP:  0.43;

JBLM-MCCHORD   LGT RAIN  49  49  99 CALM      29.34F
6HR MIN TEMP:  49; 6HR MAX TEMP:  52; 6HR PCP:  0.29;

PUYALLUP       NOT AVBL
JBLM-FT LEWIS  LGT RAIN  48  48 100 VRB3      29.33F FOG
6HR MIN TEMP:  49; 6HR MAX TEMP:  53; 6HR PCP:  0.22;

TACOMA NARROWS RAIN      48  46  93 NE6       29.35F FOG
6HR MIN TEMP:  48; 6HR MAX TEMP:  52; 6HR PCP:  0.59;

$$

WAZ001-503-506-510-514-515-220100-
NORTH INTERIOR

CITY           SKY/WX    TMP DP  RH WIND       PRES   REMARKS
BELLINGHAM     LGT RAIN  52  45  76 E10G28    29.31F
6HR MIN TEMP:  51; 6HR MAX TEMP:  53; 6HR PCP:  0.12;

FRIDAY HARBOR  LGT RAIN  50  46  86 SE24G35   29.28F
6HR MIN TEMP:  50; 6HR MAX TEMP:  50; 6HR PCP:  0.11;

EASTSOUND      LGT RAIN  50  46  87 S8G21     29.26F
PORT ANGELES   LGT RAIN  47  45  93 W7        29.24F
6HR MIN TEMP:  47; 6HR MAX TEMP:  48; 6HR PCP:  0.16;

NAS WHIDBEY    LGT RAIN  53  45  74 SE28G38   29.30F
6HR MIN TEMP:  52; 6HR MAX TEMP:  55; 6HR PCP:  0.05;

BURLINGTON     CLOUDY    50  46  87 SE10      29.35F
$$

WAZ020-022-039-040-504-511-512-220100-
SOUTHWEST INTERIOR

CITY           SKY/WX    TMP DP  RH WIND       PRES   REMARKS
SHELTON        RAIN      49  47  93 N3        29.32F VSB 1
6HR MIN TEMP:  49; 6HR MAX TEMP:  50; 6HR PCP:  1.02;

OLYMPIA        LGT RAIN  51  48  89 S20G29    29.33F FOG
6HR MIN TEMP:  49; 6HR MAX TEMP:  51; 6HR PCP:  0.47;

CHEHALIS       LGT RAIN  52  50  93 S13G21    29.37F
KELSO          CLOUDY    52  46  82 S17G30    29.45F
6HR MIN TEMP:  45; 6HR MAX TEMP:  52; 6HR PCP:  0.31;

VANCOUVER      LGT RAIN  45  43  93 SE8       29.49F FOG
6HR MIN TEMP:  42; 6HR MAX TEMP:  45; 6HR PCP:  0.36;

SCAPPOOSE, OR  LGT RAIN  47  46  97 VRB5      29.46F FOG
6HR MIN TEMP:  44; 6HR MAX TEMP:  47; 6HR PCP:  0.50;

PORTLAND, OR   LGT RAIN  44  44 100 E16       29.50F
6HR MIN TEMP:  42; 6HR MAX TEMP:  44; 6HR PCP:  0.40;

$$

WAZ021-516-517-220100-
WASHINGTON COAST

CITY           SKY/WX    TMP DP  RH WIND       PRES   REMARKS
FORKS          LGT RAIN  51  51 100 S8        29.27S FOG
6HR MIN TEMP:  50; 6HR MAX TEMP:  51; 6HR PCP:  1.03;

HOQUIAM        LGT RAIN  54  54 100 SW24G37   29.30S FOG
6HR MIN TEMP:  49; 6HR MAX TEMP:  55; 6HR PCP:  0.95;

ASTORIA, OR    RAIN      57  55  93 SW29G44   29.35R VSB 1
6HR MIN TEMP:  50; 6HR MAX TEMP:  57; 6HR PCP:  0.72;

$$

WAZ019-023-024-040-518-519-220100-
CASCADE MOUNTAINS AND COLUMBIA GORGE

CITY           SKY/WX    TMP DP  RH WIND       PRES   REMARKS
STAMPEDE PASS  NOT AVBL
TROUTDALE, OR  LGT RAIN  44  40  85 E18G28    29.51F FOG
6HR MIN TEMP:  41; 6HR MAX TEMP:  44; 6HR PCP:  0.30;

THE DALLES, OR LGT RAIN  34  32  92 CALM      29.65F VSB 1
6HR MIN TEMP:  33; 6HR MAX TEMP:  35; 6HR PCP:  0.21;

$$

WAZ026-027-041>044-520-521-220100-
EAST SLOPES

CITY           SKY/WX    TMP DP  RH WIND       PRES   REMARKS
OMAK           SNOW      32  31  96 SE3       29.65F VSB 1/2
6HR MIN TEMP:  32; 6HR MAX TEMP:  33; 6HR PCP:  0.14;

WENATCHEE      HVY SNOW  32  29  88 SE8       29.64F VSB 1/4
6HR MIN TEMP:  32; 6HR MAX TEMP:  34; 6HR PCP:  0.09;

ELLENSBURG     LGT SNOW  35  31  85 E10       29.58F FOG     WCI  27
6HR MIN TEMP:  33; 6HR MAX TEMP:  35; 6HR PCP:  0.11;

YAKIMA         FRZ RAIN  33  30  88 CALM      29.65F FOG
6HR MIN TEMP:  31; 6HR MAX TEMP:  33; 6HR PCP:  0.09;

$$

WAZ028-034-035-220100-
COLUMBIA BASIN

CITY           SKY/WX    TMP DP  RH WIND       PRES   REMARKS
EPHRATA        FRZ RAIN  33  31  92 N5        29.65F FOG
6HR MIN TEMP:  30; 6HR MAX TEMP:  33; 6HR PCP:  0.10;

MOSES LAKE     LGT RAIN  33  32  96 NW3       29.66F VSB 1
6HR MIN TEMP:  30; 6HR MAX TEMP:  33; 6HR PCP:  0.10;

PASCO          LGT RAIN  33  33 100 CALM      29.70F VSB 3/4
6HR MIN TEMP:  32; 6HR MAX TEMP:  34; 6HR PCP:  0.03;

HERMISTON, OR  LGT RAIN  34  32  92 E5        29.66F FOG
6HR MIN TEMP:  33; 6HR MAX TEMP:  34; 6HR PCP:  0.03;

$$

WAZ036>038-220100-
NORTHEAST WASHINGTON

CITY           SKY/WX    TMP DP  RH WIND       PRES   REMARKS
SPOKANE GEIGER LGT RAIN  39  36  89 SE8       29.66F
6HR MIN TEMP:  36; 6HR MAX TEMP:  40; 6HR PCP: TRACE;

SPOKANE FELTS  CLOUDY    39  36  89 NE3       29.69F FOG
6HR MIN TEMP:  36; 6HR MAX TEMP:  39; 6HR PCP:  0.01;

FAIRCHILD AFB  LGT RAIN  38  37  93 SE7       29.66F
6HR MIN TEMP:  36; 6HR MAX TEMP:  40; 6HR PCP:  0.01;

COEURDALENE,ID CLOUDY    36  34  93 NE3       29.69F
6HR MIN TEMP:  36; 6HR MAX TEMP:  41;

DEER PARK      MIX PCPN  35  35 100 E3        29.69F FOG
6HR MIN TEMP:  34; 6HR MAX TEMP:  37; 6HR PCP:  0.02;

$$

WAZ029>033-220100-
SOUTHEAST WASHINGTON

CITY           SKY/WX    TMP DP  RH WIND       PRES   REMARKS
PULLMAN        CLOUDY    42  34  73 E14       29.72F
6HR MIN TEMP:  39; 6HR MAX TEMP:  45;

LEWISTON, ID   CLOUDY    45  36  70 SE10      29.73F
6HR MIN TEMP:  40; 6HR MAX TEMP:  50;

WALLA WALLA    FOG       37  34  89 E5        29.66F VSB 1
6HR MIN TEMP:  33; 6HR MAX TEMP:  41;

PENDLETON, OR  LGT RAIN  44  35  70 SE6       29.65F FOG
6HR MIN TEMP:  32; 6HR MAX TEMP:  45; 6HR PCP:  0.01;

$$


USA.gov is the U.S. government's official web portal to all federal, state and local government web resources and services.